Pagrindinis puslapis
METAR-TAF:

METAR-TAF

Oro uostai :

Žuazeiro do Nortė, Ceará, Brazilija

platuma: 07-13-06S, ilguma: 039-16-18W, Aukštis: 424 m

Dabartinis oras

Ataskaita buvo paskelbta 21 minutes, ne 21:00 UTC
Vėjas 6 kt iš Pietryčių
Temperatūra 34°C
Drėgmė 30%
Slėgis 1010 hPa
Matomumas 10 km arba daugiau
Mažai debesys ne aukštis 2200 ft

METAR: SBJU 122100Z 14006KT 9999 FEW022 34/14 Q1010

Laikas: 18:21 (21:21 UTC)


TAF: trūkstamas

Orai ataskaitas ir orų prognozės (METAR, TAF).

turimą stotys yra geltonos ir raudonos taškus žemėlapyje.

Perkelti pele per norėdami pamatyti stoties vardą.

Tada spustelėkite, norėdami matyti oro stebėjimo ir prognozės.

Norėdami pakeisti žemėlapį: spustelėkite ant žalios mygtukų su juodo kryžiaus žemyn,; žalią mygtuką su brūkšneliu, jei norite nutolinti; arba žalių rodyklių gretimoms žemėlapius.


METAR-TAF: